{"data":{"norad_id":58409,"epoch":"2026-05-25T04:55:48.962784Z","epoch_age_seconds":60395,"freshness":"FRESH","line1":"1 58409U 23180H   26145.20542781  .00000639  00000+0  32750-4 0  9995","line2":"2 58409  43.0034 195.3461 0001639 265.1223  94.9442 15.27577319141039","mean_motion":15.27577319,"eccentricity":0.0001639,"inclination_deg":43.0034,"raan_deg":195.3461,"arg_perigee_deg":265.1223,"mean_anomaly_deg":94.9442,"bstar":3.275e-5,"rev_number":14103,"period_min":94.266914158078,"perigee_km":481.93257421297,"apogee_km":484.18167364679,"semimajor_km":6861.1941239299,"source":"CELESTRAK","updated_at":"2026-05-25T13:38:18.618024Z"}}